sat.trackr.live / text

‹ back to catalog

STARLINK-34295

NORAD 64455 · 2025-130T

PAYLOAD ACTIVE UNKNOWN

§ Identity

Operator
Country
US
Launch date
2025-06-18
Launch site
AFETR
Launch vehicle
Mass (kg)
RCS (m²)

Purposes: comms

External: N2YO · Heavens-Above · Gunter

§ Orbital elements

Epoch: 2026-09-20T00:21:16.600608Z

Period
93.85 min
Inclination
53.1567°
Eccentricity
0.0001726
Mean motion
15.34403178 rev/d
Perigee alt
461.5 km
Apogee alt
463.9 km
Semi-major
6,840.8 km
B*
5.7962e-4
RAAN
261.7644°
Arg perigee
97.3777°
Mean anomaly
262.7422°
Rev number
7,051

§ Raw data

STARLINK-342951 64455U 25130T   26263.01477547  .00019259  00000+0  57962-3 0  99962 64455  53.1567 261.7644 0001726  97.3777 262.7422 15.34403178 70513

JSON: /api/v1/satellites/64455 · /tle

For live sub-satellite position, see the globe view (requires WebGL).

§ Visibility from observer

Set your observer location to see the next 7 days of passes ≥ 10°. The values pass through the URL so the page stays shareable.

No JS? Fill the form by hand. The geolocation button needs JavaScript.